Date String (YYYY-MM-DD hh:mm:ss) UTC,Instrument flags,Ambient pressure (hPa),Sample flow (lpm),Bypass flow (lpm),Sample temperature (°C),Ambient temperature (°C),ASC tube jacket temperature (°C),LED temperature (°C),Box temperature (°C),Sample RH (%),Span deviation,Mass concentration (μg/m³),Mass concentration (μg/m³),Mass concentration (μg/m³)
DateTimeUTC,F1_M11,P_M11,Q1_M11,Q2_M11,T1_M11,T2_M11,T3_M11,T4_M11,T5_M11,U1_M11,ZSPAN_M11,X0_M11,X2_M11,X1_M11
2022-01-01 13:00:00,,0817.0,5.01,0.00,23.0,23.0,00.0,31.8,24.8,06.1,0000.0,0007.03,0000.24,0000.02
2022-01-01 13:01:00,,0816.8,5.01,0.00,22.9,22.7,00.0,31.8,24.7,06.1,0000.0,0007.72,0000.25,0000.03
2022-01-01 13:02:00,,0816.9,4.99,0.00,22.9,22.5,00.0,31.8,24.6,06.1,0000.0,0007.77,0000.26,0000.03
2022-01-01 13:03:00,,0816.8,5.00,0.00,22.8,22.3,00.0,31.8,24.5,06.1,0000.0,0007.78,0000.25,0000.02
2022-01-01 13:04:00,,0817.2,5.01,0.00,22.8,22.2,00.0,31.8,24.4,06.2,0000.0,0007.78,0000.26,0000.02
2022-01-01 13:05:00,,0817.4,4.99,0.00,22.8,22.1,00.0,31.8,24.4,06.1,0000.0,0005.54,0000.22,0000.02
2022-01-01 13:06:00,,0817.2,5.00,0.00,22.7,22.0,00.0,31.8,24.3,06.2,0000.0,0005.62,0000.24,0000.02
2022-01-01 13:07:00,,0817.3,5.02,0.00,22.7,21.9,00.0,31.8,24.3,06.2,0000.0,0005.67,0000.27,0000.02
2022-01-01 13:08:00,,0816.9,4.99,0.00,22.7,22.1,00.0,31.7,24.3,06.2,0000.0,0005.70,0000.26,0000.02
2022-01-01 13:09:00,,0816.9,5.01,0.00,22.8,22.8,00.0,31.8,24.5,06.2,0000.0,0005.74,0000.29,0000.03
2022-01-01 13:10:00,,0817.0,5.00,0.00,22.9,23.5,00.0,31.8,24.8,06.1,0000.0,0005.75,0000.33,0000.03
2022-01-01 13:11:00,,0816.9,5.00,0.00,23.0,23.5,00.0,31.8,24.9,06.1,0000.0,0005.85,0000.35,0000.04
2022-01-01 13:12:00,,0816.9,5.00,0.00,23.0,23.2,00.0,31.8,24.9,06.0,0000.0,0005.67,0000.35,0000.04
2022-01-01 13:13:00,,0817.4,4.99,0.00,23.0,22.9,00.0,31.9,24.8,06.1,0000.0,0006.62,0000.33,0000.04
2022-01-01 13:14:00,,0817.2,5.02,0.00,22.9,22.6,00.0,31.9,24.7,06.1,0000.0,0006.78,0000.34,0000.04
2022-01-01 13:15:00,,0816.9,4.99,0.00,22.9,22.4,00.0,31.9,24.6,06.1,0000.0,0006.79,0000.33,0000.04
2022-01-01 13:16:00,,0817.0,5.00,0.00,22.9,22.2,00.0,31.8,24.5,06.0,0000.0,0006.68,0000.33,0000.04
2022-01-01 13:17:00,,0817.0,5.00,0.00,22.8,22.1,00.0,31.8,24.4,06.0,0000.0,0004.32,0000.26,0000.04
2022-01-01 13:18:00,,0817.0,5.00,0.00,22.8,22.0,00.0,31.8,24.4,06.1,0000.0,0003.03,0000.21,0000.03
2022-01-01 13:19:00,,0817.0,4.99,0.00,22.7,21.9,00.0,31.8,24.3,06.1,0000.0,0003.06,0000.22,0000.03
2022-01-01 13:20:00,,0817.0,5.00,0.00,22.7,21.9,00.0,31.8,24.3,06.1,0000.0,0004.06,0000.20,0000.03
2022-01-01 13:21:00,,0817.0,5.01,0.00,22.7,22.2,00.0,31.8,24.3,06.1,0000.0,0004.21,0000.20,0000.02
2022-01-01 13:22:00,,0817.0,4.99,0.00,22.8,22.9,00.0,31.8,24.6,06.1,0000.0,0003.95,0000.21,0000.02
2022-01-01 13:23:00,,0817.1,4.99,0.00,22.9,23.5,00.0,31.8,24.8,06.1,0000.0,0003.01,0000.21,0000.03
2022-01-01 13:24:00,,0817.1,4.99,0.00,23.0,23.5,00.0,31.9,24.9,06.0,0000.0,0001.87,0000.22,0000.03
2022-01-01 13:25:00,,0817.1,5.01,0.00,23.0,23.2,00.0,31.9,24.8,06.0,0000.0,0001.75,0000.21,0000.03
2022-01-01 13:26:00,,0817.1,5.00,0.00,23.0,22.9,00.0,31.9,24.7,06.0,0000.0,0001.72,0000.21,0000.03
2022-01-01 13:27:00,,0817.1,5.01,0.00,22.9,22.7,00.0,31.9,24.6,06.1,0000.0,0001.68,0000.19,0000.03
2022-01-01 13:28:00,,0817.1,4.99,0.00,22.9,22.5,00.0,31.9,24.5,06.1,0000.0,0002.14,0000.19,0000.03
2022-01-01 13:29:00,,0817.2,5.01,0.00,22.8,22.3,00.0,31.8,24.5,06.1,0000.0,0004.61,0000.20,0000.03
2022-01-01 13:30:00,,0817.2,5.00,0.00,22.8,22.1,00.0,31.8,24.4,06.1,0000.0,0007.06,0000.17,0000.02
2022-01-01 13:31:00,,0817.2,4.99,0.00,22.7,22.0,00.0,31.8,24.3,06.1,0000.0,0006.99,0000.17,0000.02
2022-01-01 13:32:00,,0817.1,5.01,0.00,22.7,21.9,00.0,31.8,24.3,06.1,0000.0,0006.74,0000.14,0000.02
2022-01-01 13:33:00,,0817.2,5.00,0.00,22.7,22.0,00.0,31.8,24.3,06.1,0000.0,0008.19,0000.17,0000.02
2022-01-01 13:34:00,,0817.2,4.99,0.00,22.8,22.8,00.0,31.8,24.5,06.1,0000.0,0008.32,0000.18,0000.02
2022-01-01 13:35:00,,0817.2,5.01,0.00,22.9,23.5,00.0,31.8,24.8,06.0,0000.0,0008.33,0000.18,0000.02
2022-01-01 13:36:00,,0817.2,5.00,0.00,23.0,23.6,00.0,31.9,24.9,05.9,0000.0,0008.36,0000.21,0000.02
2022-01-01 13:37:00,,0817.1,5.01,0.00,23.0,23.3,00.0,31.9,24.9,06.0,0000.0,0008.72,0000.23,0000.02
2022-01-01 13:38:00,,0817.1,4.99,0.00,23.0,23.0,00.0,31.9,24.8,06.0,0000.0,0008.76,0000.24,0000.02
2022-01-01 13:39:00,,0817.2,5.00,0.00,22.9,22.7,00.0,31.9,24.7,06.0,0000.0,0008.47,0000.24,0000.02
2022-01-01 13:40:00,,0817.2,5.00,0.00,22.9,22.5,00.0,31.9,24.6,06.0,0000.0,0007.87,0000.24,0000.02
2022-01-01 13:41:00,,0817.2,5.00,0.00,22.9,22.3,00.0,31.8,24.5,06.0,0000.0,0005.08,0000.25,0000.02
2022-01-01 13:42:00,,0817.2,5.02,0.00,22.8,22.1,00.0,31.8,24.4,06.0,0000.0,0005.54,0000.29,0000.02
2022-01-01 13:43:00,,0817.2,5.00,0.00,22.8,22.0,00.0,31.8,24.4,06.0,0000.0,0005.86,0000.32,0000.02
2022-01-01 13:44:00,,0817.2,5.00,0.00,22.7,21.9,00.0,31.8,24.3,06.0,0000.0,0003.42,0000.28,0000.02
2022-01-01 13:45:00,,0817.2,5.01,0.00,22.7,21.8,00.0,31.8,24.3,06.0,0000.0,0003.51,0000.28,0000.02
2022-01-01 13:46:00,,0817.3,4.99,0.00,22.6,21.8,00.0,31.7,24.2,06.0,0000.0,0003.62,0000.29,0000.02
2022-01-01 13:47:00,,0817.4,5.00,0.00,22.7,22.3,00.0,31.8,24.4,06.0,0000.0,0003.66,0000.29,0000.02
2022-01-01 13:48:00,,0817.5,5.00,0.00,22.8,23.1,00.0,31.8,24.6,05.9,0000.0,0004.30,0000.28,0000.03
2022-01-01 13:49:00,,0817.5,5.00,0.00,22.9,23.5,00.0,31.8,24.8,05.9,0000.0,0005.51,0000.29,0000.03
2022-01-01 13:50:00,,0817.6,5.00,0.00,22.9,23.2,00.0,31.8,24.8,05.9,0000.0,0005.34,0000.28,0000.02
2022-01-01 13:51:00,,0817.6,5.00,0.00,22.9,22.9,00.0,31.8,24.7,05.9,0000.0,0004.18,0000.28,0000.03
2022-01-01 13:52:00,,0817.7,5.01,0.00,22.9,22.7,00.0,31.8,24.7,05.9,0000.0,0004.29,0000.30,0000.03
2022-01-01 13:53:00,,0817.8,4.99,0.00,22.9,22.4,00.0,31.8,24.6,06.0,0000.0,0004.06,0000.26,0000.03
2022-01-01 13:54:00,,0817.9,5.02,0.00,22.8,22.3,00.0,31.8,24.5,06.1,0000.0,0005.06,0000.27,0000.03
2022-01-01 13:55:00,,0817.9,4.98,0.00,22.8,22.1,00.0,31.8,24.4,06.1,0000.0,0005.24,0000.27,0000.03
2022-01-01 13:56:00,,0818.0,5.00,0.00,22.7,22.0,00.0,31.8,24.3,05.9,0000.0,0005.29,0000.30,0000.03
2022-01-01 13:57:00,,0818.0,5.01,0.00,22.7,21.8,00.0,31.8,24.2,06.0,0000.0,0005.73,0000.31,0000.03
2022-01-01 13:58:00,,0818.0,5.01,0.00,22.6,21.7,00.0,31.7,24.1,06.0,0000.0,0005.83,0000.29,0000.03
2022-01-01 13:59:00,,0818.0,4.99,0.00,22.6,21.8,00.0,31.7,24.1,05.8,0000.0,0004.56,0000.30,0000.02
